contact:dominique.lefevre@mio.osupytheas.fr, maurice.libes@osupytheas.fr, didier.mallarino@osupytheas.fr
Project:EMSO http://www.emso-fr.org/EMSO-France
Depth: 2436.0 m
Title:EMSO Ligure Ouest : Data MII capteur MICROCAT
DateTime_Computer,Latitude,Longitude,Temperature,Conductivity,Pressure,DateTime_Instrument
DateTime_Computer,Latitude,Longitude,degC,S m-1,dbar,DateTime_Instrument
2020-12-24T00:02:32Z,42.805,6.029,13.2979,4.59985,2470.171,2020-12-24T02:03:31Z
2020-12-24T00:05:35Z,42.805,6.029,13.2981,4.59985,2470.147,2020-12-24T02:06:35Z
2020-12-24T00:08:38Z,42.805,6.029,13.2980,4.59985,2470.171,2020-12-24T02:09:38Z
2020-12-24T00:11:41Z,42.805,6.029,13.2981,4.59986,2470.133,2020-12-24T02:12:41Z
2020-12-24T00:14:44Z,42.805,6.029,13.2979,4.59984,2470.171,2020-12-24T02:15:44Z
2020-12-24T00:17:47Z,42.805,6.029,13.2979,4.59984,2470.171,2020-12-24T02:18:47Z
2020-12-24T00:20:51Z,42.805,6.029,13.2981,4.59985,2470.171,2020-12-24T02:21:50Z
2020-12-24T00:23:54Z,42.805,6.029,13.2979,4.59986,2470.156,2020-12-24T02:24:53Z
2020-12-24T00:26:57Z,42.805,6.029,13.2982,4.59985,2470.147,2020-12-24T02:27:56Z
2020-12-24T00:30:00Z,42.805,6.029,13.2980,4.59986,2470.133,2020-12-24T02:31:00Z
2020-12-24T00:33:03Z,42.805,6.029,13.2982,4.59986,2470.11,2020-12-24T02:34:03Z
2020-12-24T00:36:06Z,42.805,6.029,13.2978,4.59988,2470.133,2020-12-24T02:37:06Z
2020-12-24T00:39:09Z,42.805,6.029,13.2977,4.59989,2470.11,2020-12-24T02:40:09Z
2020-12-24T00:42:12Z,42.805,6.029,13.2979,4.59990,2470.133,2020-12-24T02:43:12Z
2020-12-24T00:45:15Z,42.805,6.029,13.2981,4.59988,2470.133,2020-12-24T02:46:15Z
2020-12-24T00:48:19Z,42.805,6.029,13.2977,4.59987,2470.133,2020-12-24T02:49:18Z
2020-12-24T00:51:22Z,42.805,6.029,13.2978,4.59988,2470.119,2020-12-24T02:52:21Z
2020-12-24T00:54:25Z,42.805,6.029,13.2979,4.59985,2470.156,2020-12-24T02:55:24Z
2020-12-24T00:57:28Z,42.805,6.029,13.2981,4.59988,2470.11,2020-12-24T02:58:28Z
2020-12-24T01:00:31Z,42.805,6.029,13.2982,4.59991,2470.156,2020-12-24T03:01:31Z
2020-12-24T01:03:34Z,42.805,6.029,13.2979,4.59984,2470.133,2020-12-24T03:04:34Z
2020-12-24T01:06:37Z,42.805,6.029,13.2979,4.59986,2470.156,2020-12-24T03:07:37Z
2020-12-24T01:09:40Z,42.805,6.029,13.2981,4.59986,2470.133,2020-12-24T03:10:40Z
2020-12-24T01:12:44Z,42.805,6.029,13.2979,4.59984,2470.171,2020-12-24T03:13:43Z
2020-12-24T01:15:47Z,42.805,6.029,13.2982,4.59986,2470.133,2020-12-24T03:16:46Z
2020-12-24T01:18:50Z,42.805,6.029,13.2983,4.59985,2470.156,2020-12-24T03:19:49Z
2020-12-24T01:21:53Z,42.805,6.029,13.2981,4.59985,2470.171,2020-12-24T03:22:53Z
2020-12-24T01:24:56Z,42.805,6.029,13.2982,4.59986,2470.171,2020-12-24T03:25:56Z
2020-12-24T01:27:59Z,42.805,6.029,13.2978,4.59986,2470.133,2020-12-24T03:28:59Z
2020-12-24T01:31:02Z,42.805,6.029,13.2978,4.59988,2470.156,2020-12-24T03:32:02Z
2020-12-24T01:34:05Z,42.805,6.029,13.2983,4.59986,2470.171,2020-12-24T03:35:05Z
2020-12-24T01:37:09Z,42.805,6.029,13.2981,4.59986,2470.156,2020-12-24T03:38:08Z
2020-12-24T01:40:12Z,42.805,6.029,13.2981,4.59986,2470.18,2020-12-24T03:41:11Z
2020-12-24T01:43:15Z,42.805,6.029,13.2980,4.59989,2470.133,2020-12-24T03:44:14Z
2020-12-24T01:46:18Z,42.805,6.029,13.2980,4.59986,2470.143,2020-12-24T03:47:18Z
2020-12-24T01:49:21Z,42.805,6.029,13.2981,4.59986,2470.147,2020-12-24T03:50:21Z
2020-12-24T01:52:24Z,42.805,6.029,13.2982,4.59985,2470.156,2020-12-24T03:53:24Z
2020-12-24T01:55:27Z,42.805,6.029,13.2980,4.59986,2470.147,2020-12-24T03:56:27Z
2020-12-24T01:58:30Z,42.805,6.029,13.2981,4.59988,2470.156,2020-12-24T03:59:30Z
2020-12-24T02:01:34Z,42.805,6.029,13.2982,4.59987,2470.156,2020-12-24T04:02:33Z
2020-12-24T02:04:37Z,42.805,6.029,13.2979,4.59988,2470.156,2020-12-24T04:05:36Z
2020-12-24T02:07:40Z,42.805,6.029,13.2982,4.59987,2470.194,2020-12-24T04:08:39Z
2020-12-24T02:10:43Z,42.805,6.029,13.2982,4.59986,2470.203,2020-12-24T04:11:43Z
2020-12-24T02:13:46Z,42.805,6.029,13.2979,4.59991,2470.156,2020-12-24T04:14:46Z
2020-12-24T02:16:49Z,42.805,6.029,13.2979,4.59987,2470.171,2020-12-24T04:17:49Z
2020-12-24T02:19:52Z,42.805,6.029,13.2981,4.59987,2470.194,2020-12-24T04:20:52Z
2020-12-24T02:22:55Z,42.805,6.029,13.2983,4.59987,2470.156,2020-12-24T04:23:55Z
2020-12-24T02:25:59Z,42.805,6.029,13.2981,4.59988,2470.194,2020-12-24T04:26:58Z
2020-12-24T02:29:02Z,42.805,6.029,13.2979,4.59988,2470.18,2020-12-24T04:30:01Z
2020-12-24T02:32:05Z,42.805,6.029,13.2979,4.59988,2470.156,2020-12-24T04:33:04Z
2020-12-24T02:35:08Z,42.805,6.029,13.2979,4.59988,2470.156,2020-12-24T04:36:08Z
2020-12-24T02:38:11Z,42.805,6.029,13.2980,4.59986,2470.171,2020-12-24T04:39:11Z
2020-12-24T02:41:14Z,42.805,6.029,13.2982,4.59987,2470.18,2020-12-24T04:42:14Z
2020-12-24T02:44:17Z,42.805,6.029,13.2981,4.59986,2470.171,2020-12-24T04:45:17Z
2020-12-24T02:47:20Z,42.805,6.029,13.2980,4.59986,2470.133,2020-12-24T04:48:20Z
2020-12-24T02:50:23Z,42.805,6.029,13.2981,4.59989,2470.156,2020-12-24T04:51:23Z
2020-12-24T02:53:27Z,42.805,6.029,13.2978,4.59988,2470.194,2020-12-24T04:54:26Z
2020-12-24T02:56:30Z,42.805,6.029,13.2979,4.59988,2470.133,2020-12-24T04:57:29Z
2020-12-24T02:59:33Z,42.805,6.029,13.2980,4.59991,2470.203,2020-12-24T05:00:32Z
2020-12-24T03:02:36Z,42.805,6.029,13.2979,4.59994,2470.18,2020-12-24T05:03:36Z
2020-12-24T03:05:39Z,42.805,6.029,13.2982,4.59987,2470.194,2020-12-24T05:06:39Z
2020-12-24T03:08:42Z,42.805,6.029,13.2982,4.59987,2470.194,2020-12-24T05:09:42Z
2020-12-24T03:11:45Z,42.805,6.029,13.2983,4.59989,2470.156,2020-12-24T05:12:45Z
2020-12-24T03:14:48Z,42.805,6.029,13.2978,4.59988,2470.156,2020-12-24T05:15:48Z
2020-12-24T03:17:52Z,42.805,6.029,13.2983,4.59986,2470.227,2020-12-24T05:18:51Z
2020-12-24T03:20:55Z,42.805,6.029,13.2979,4.59986,2470.156,2020-12-24T05:21:54Z
2020-12-24T03:23:58Z,42.805,6.029,13.2982,4.59989,2470.217,2020-12-24T05:24:57Z
2020-12-24T03:27:01Z,42.805,6.029,13.2980,4.59987,2470.156,2020-12-24T05:28:01Z
2020-12-24T03:30:04Z,42.805,6.029,13.2979,4.59988,2470.166,2020-12-24T05:31:04Z
2020-12-24T03:33:07Z,42.805,6.029,13.2980,4.59988,2470.18,2020-12-24T05:34:07Z
2020-12-24T03:36:10Z,42.805,6.029,13.2982,4.59990,2470.156,2020-12-24T05:37:10Z
2020-12-24T03:39:13Z,42.805,6.029,13.2978,4.59992,2470.171,2020-12-24T05:40:13Z
2020-12-24T03:42:17Z,42.805,6.029,13.2982,4.59988,2470.156,2020-12-24T05:43:16Z
2020-12-24T03:45:20Z,42.805,6.029,13.2979,4.59990,2470.18,2020-12-24T05:46:19Z
2020-12-24T03:48:23Z,42.805,6.029,13.2982,4.59991,2470.156,2020-12-24T05:49:22Z
2020-12-24T03:51:26Z,42.805,6.029,13.2982,4.59995,2470.217,2020-12-24T05:52:26Z
2020-12-24T03:54:29Z,42.805,6.029,13.2978,4.59999,2470.133,2020-12-24T05:55:29Z
2020-12-24T03:57:32Z,42.805,6.029,13.2976,4.59987,2470.171,2020-12-24T05:58:32Z
2020-12-24T04:00:35Z,42.805,6.029,13.2979,4.59991,2470.18,2020-12-24T06:01:35Z
2020-12-24T04:03:38Z,42.805,6.029,13.2978,4.59990,2470.18,2020-12-24T06:04:38Z
2020-12-24T04:06:42Z,42.805,6.029,13.2980,4.59991,2470.194,2020-12-24T06:07:41Z
2020-12-24T04:09:45Z,42.805,6.029,13.2981,4.59988,2470.203,2020-12-24T06:10:44Z
2020-12-24T04:12:48Z,42.805,6.029,13.2981,4.59987,2470.194,2020-12-24T06:13:47Z
2020-12-24T04:15:51Z,42.805,6.029,13.2983,4.59991,2470.18,2020-12-24T06:16:51Z
2020-12-24T04:18:54Z,42.805,6.029,13.2979,4.59988,2470.194,2020-12-24T06:19:54Z
2020-12-24T04:21:57Z,42.805,6.029,13.2977,4.59991,2470.18,2020-12-24T06:22:57Z
2020-12-24T04:25:00Z,42.805,6.029,13.2977,4.59986,2470.171,2020-12-24T06:26:00Z
2020-12-24T04:28:03Z,42.805,6.029,13.2979,4.59986,2470.171,2020-12-24T06:29:03Z
2020-12-24T04:31:06Z,42.805,6.029,13.2979,4.59987,2470.217,2020-12-24T06:32:06Z
2020-12-24T04:34:10Z,42.805,6.029,13.2978,4.59987,2470.156,2020-12-24T06:35:09Z
2020-12-24T04:37:13Z,42.805,6.029,13.2983,4.59988,2470.171,2020-12-24T06:38:12Z
2020-12-24T04:40:16Z,42.805,6.029,13.2981,4.59987,2470.194,2020-12-24T06:41:15Z
2020-12-24T04:43:19Z,42.805,6.029,13.2982,4.59988,2470.171,2020-12-24T06:44:19Z
2020-12-24T04:46:22Z,42.805,6.029,13.2979,4.59986,2470.156,2020-12-24T06:47:22Z
2020-12-24T04:49:25Z,42.805,6.029,13.2981,4.59985,2470.203,2020-12-24T06:50:25Z
2020-12-24T04:52:28Z,42.805,6.029,13.2981,4.59985,2470.156,2020-12-24T06:53:28Z
2020-12-24T04:55:31Z,42.805,6.029,13.2982,4.59986,2470.156,2020-12-24T06:56:31Z
2020-12-24T04:58:35Z,42.805,6.029,13.2977,4.59986,2470.156,2020-12-24T06:59:34Z
2020-12-24T05:01:38Z,42.805,6.029,13.2979,4.59986,2470.171,2020-12-24T07:02:37Z
2020-12-24T05:04:41Z,42.805,6.029,13.2979,4.59988,2470.133,2020-12-24T07:05:40Z
2020-12-24T05:07:44Z,42.805,6.029,13.2980,4.59987,2470.18,2020-12-24T07:08:44Z
2020-12-24T05:10:47Z,42.805,6.029,13.2979,4.59986,2470.156,2020-12-24T07:11:47Z
2020-12-24T05:13:50Z,42.805,6.029,13.2983,4.59988,2470.147,2020-12-24T07:14:50Z
2020-12-24T05:16:53Z,42.805,6.029,13.2979,4.59988,2470.156,2020-12-24T07:17:53Z
2020-12-24T05:19:56Z,42.805,6.029,13.2978,4.59991,2470.171,2020-12-24T07:20:56Z
2020-12-24T05:23:00Z,42.805,6.029,13.2983,4.59996,2470.156,2020-12-24T07:23:59Z
2020-12-24T05:26:03Z,42.805,6.029,13.2985,4.60023,2470.194,2020-12-24T07:27:02Z
2020-12-24T05:29:06Z,42.805,6.029,13.2980,4.60002,2470.194,2020-12-24T07:30:05Z
2020-12-24T05:32:09Z,42.805,6.029,13.2985,4.59997,2470.156,2020-12-24T07:33:09Z
2020-12-24T05:35:12Z,42.805,6.029,13.2980,4.59996,2470.133,2020-12-24T07:36:12Z
2020-12-24T05:38:15Z,42.805,6.029,13.2978,4.59993,2470.143,2020-12-24T07:39:15Z
2020-12-24T05:41:18Z,42.805,6.029,13.2995,4.60001,2470.156,2020-12-24T07:42:18Z
2020-12-24T05:44:21Z,42.805,6.029,13.2986,4.60007,2470.147,2020-12-24T07:45:21Z
2020-12-24T05:47:25Z,42.805,6.029,13.2986,4.60014,2470.156,2020-12-24T07:48:24Z
2020-12-24T05:50:28Z,42.805,6.029,13.2982,4.60002,2470.194,2020-12-24T07:51:27Z
2020-12-24T05:53:31Z,42.805,6.029,13.2986,4.60010,2470.133,2020-12-24T07:54:30Z
2020-12-24T05:56:34Z,42.805,6.029,13.3019,4.60005,2470.147,2020-12-24T07:57:34Z
2020-12-24T05:59:37Z,42.805,6.029,13.2979,4.59998,2470.18,2020-12-24T08:00:37Z
2020-12-24T06:02:40Z,42.805,6.029,13.2984,4.59997,2470.18,2020-12-24T08:03:40Z
2020-12-24T06:05:43Z,42.805,6.029,13.2979,4.59994,2470.133,2020-12-24T08:06:43Z
2020-12-24T06:08:46Z,42.805,6.029,13.2981,4.59995,2470.194,2020-12-24T08:09:46Z
2020-12-24T06:11:50Z,42.805,6.029,13.2979,4.60006,2470.18,2020-12-24T08:12:49Z
2020-12-24T06:14:53Z,42.805,6.029,13.2983,4.60013,2470.171,2020-12-24T08:15:52Z
2020-12-24T06:17:56Z,42.805,6.029,13.3026,4.60012,2470.156,2020-12-24T08:18:55Z
2020-12-24T06:20:59Z,42.805,6.029,13.3046,4.60013,2470.124,2020-12-24T08:21:59Z
2020-12-24T06:24:02Z,42.805,6.029,13.3012,4.60028,2470.171,2020-12-24T08:25:02Z
2020-12-24T06:27:05Z,42.805,6.029,13.2985,4.60018,2470.133,2020-12-24T08:28:05Z
2020-12-24T06:30:08Z,42.805,6.029,13.3026,4.60008,2470.133,2020-12-24T08:31:08Z
2020-12-24T06:33:11Z,42.805,6.029,13.2984,4.60009,2470.156,2020-12-24T08:34:11Z
2020-12-24T06:36:15Z,42.805,6.029,13.2987,4.60031,2470.156,2020-12-24T08:37:14Z
2020-12-24T06:39:18Z,42.805,6.029,13.3001,4.60026,2470.156,2020-12-24T08:40:17Z
2020-12-24T06:42:21Z,42.805,6.029,13.3026,4.60035,2470.18,2020-12-24T08:43:20Z
2020-12-24T06:45:24Z,42.805,6.029,13.3000,4.60024,2470.156,2020-12-24T08:46:23Z
2020-12-24T06:48:27Z,42.805,6.029,13.3011,4.60011,2470.124,2020-12-24T08:49:27Z
2020-12-24T06:51:30Z,42.805,6.029,13.3011,4.60017,2470.147,2020-12-24T08:52:30Z
2020-12-24T06:54:33Z,42.805,6.029,13.3004,4.60014,2470.147,2020-12-24T08:55:33Z
2020-12-24T06:57:36Z,42.805,6.029,13.3006,4.60020,2470.147,2020-12-24T08:58:36Z
2020-12-24T07:00:39Z,42.805,6.029,13.3016,4.60007,2470.133,2020-12-24T09:01:39Z
2020-12-24T07:03:43Z,42.805,6.029,13.2990,4.60005,2470.147,2020-12-24T09:04:42Z
2020-12-24T07:06:46Z,42.805,6.029,13.3007,4.60021,2470.156,2020-12-24T09:07:45Z
2020-12-24T07:09:49Z,42.805,6.029,13.3000,4.60029,2470.147,2020-12-24T09:10:48Z
2020-12-24T07:12:52Z,42.805,6.029,13.3004,4.60022,2470.133,2020-12-24T09:13:52Z
2020-12-24T07:15:55Z,42.805,6.029,13.3008,4.60019,2470.156,2020-12-24T09:16:55Z
2020-12-24T07:18:58Z,42.805,6.029,13.2999,4.60020,2470.171,2020-12-24T09:19:58Z
2020-12-24T07:22:01Z,42.805,6.029,13.2996,4.59999,2470.133,2020-12-24T09:23:01Z
2020-12-24T07:25:04Z,42.805,6.029,13.3000,4.60015,2470.171,2020-12-24T09:26:04Z
2020-12-24T07:28:08Z,42.805,6.029,13.2986,4.60016,2470.147,2020-12-24T09:29:07Z
2020-12-24T07:31:11Z,42.805,6.029,13.3017,4.60031,2470.11,2020-12-24T09:32:10Z
2020-12-24T07:34:14Z,42.805,6.029,13.2993,4.60018,2470.156,2020-12-24T09:35:13Z
2020-12-24T07:37:17Z,42.805,6.029,13.2994,4.60014,2470.18,2020-12-24T09:38:17Z
2020-12-24T07:40:20Z,42.805,6.029,13.3012,4.60026,2470.171,2020-12-24T09:41:20Z
2020-12-24T07:43:23Z,42.805,6.029,13.2996,4.60032,2470.11,2020-12-24T09:44:23Z
2020-12-24T07:46:26Z,42.805,6.029,13.2983,4.60004,2470.147,2020-12-24T09:47:26Z
2020-12-24T07:49:29Z,42.805,6.029,13.2980,4.59999,2470.133,2020-12-24T09:50:29Z
2020-12-24T07:52:33Z,42.805,6.029,13.3006,4.60017,2470.133,2020-12-24T09:53:32Z
2020-12-24T07:55:36Z,42.805,6.029,13.3020,4.60015,2470.171,2020-12-24T09:56:35Z
2020-12-24T07:58:39Z,42.805,6.029,13.2982,4.60008,2470.147,2020-12-24T09:59:38Z
2020-12-24T08:01:42Z,42.805,6.029,13.2979,4.60006,2470.147,2020-12-24T10:02:42Z
2020-12-24T08:04:45Z,42.805,6.029,13.2982,4.59998,2470.119,2020-12-24T10:05:45Z
2020-12-24T08:07:48Z,42.805,6.029,13.2982,4.60000,2470.171,2020-12-24T10:08:48Z
2020-12-24T08:10:51Z,42.805,6.029,13.3005,4.60005,2470.119,2020-12-24T10:11:51Z
2020-12-24T08:13:54Z,42.805,6.029,13.2998,4.60011,2470.147,2020-12-24T10:14:54Z
2020-12-24T08:16:58Z,42.805,6.029,13.2996,4.60017,2470.147,2020-12-24T10:17:57Z
2020-12-24T08:20:01Z,42.805,6.029,13.3004,4.60011,2470.133,2020-12-24T10:21:00Z
2020-12-24T08:23:04Z,42.805,6.029,13.3011,4.60021,2470.124,2020-12-24T10:24:03Z
2020-12-24T08:26:07Z,42.805,6.029,13.2998,4.60021,2470.133,2020-12-24T10:27:07Z
2020-12-24T08:29:10Z,42.805,6.029,13.3024,4.60033,2470.171,2020-12-24T10:30:10Z
2020-12-24T08:32:13Z,42.805,6.029,13.3015,4.60011,2470.124,2020-12-24T10:33:13Z
2020-12-24T08:35:16Z,42.805,6.029,13.3006,4.60014,2470.133,2020-12-24T10:36:16Z
2020-12-24T08:38:19Z,42.805,6.029,13.3001,4.60018,2470.133,2020-12-24T10:39:19Z
2020-12-24T08:41:23Z,42.805,6.029,13.3006,4.60006,2470.11,2020-12-24T10:42:22Z
2020-12-24T08:44:26Z,42.805,6.029,13.3002,4.60009,2470.171,2020-12-24T10:45:25Z
2020-12-24T08:47:29Z,42.805,6.029,13.2991,4.60020,2470.124,2020-12-24T10:48:28Z
2020-12-24T08:50:32Z,42.805,6.029,13.2999,4.60009,2470.156,2020-12-24T10:51:32Z
2020-12-24T08:53:35Z,42.805,6.029,13.2991,4.60023,2470.133,2020-12-24T10:54:35Z
2020-12-24T08:56:38Z,42.805,6.029,13.3004,4.60001,2470.156,2020-12-24T10:57:38Z
2020-12-24T08:59:41Z,42.805,6.029,13.3006,4.59999,2470.171,2020-12-24T11:00:41Z
2020-12-24T09:02:44Z,42.805,6.029,13.2991,4.60008,2470.147,2020-12-24T11:03:44Z
2020-12-24T09:05:48Z,42.805,6.029,13.3000,4.60017,2470.194,2020-12-24T11:06:47Z
2020-12-24T09:08:51Z,42.805,6.029,13.3014,4.60009,2470.147,2020-12-24T11:09:50Z
2020-12-24T09:11:54Z,42.805,6.029,13.2996,4.60013,2470.156,2020-12-24T11:12:53Z
2020-12-24T09:14:57Z,42.805,6.029,13.3000,4.60010,2470.133,2020-12-24T11:15:57Z
2020-12-24T09:18:00Z,42.805,6.029,13.3006,4.59999,2470.147,2020-12-24T11:19:00Z
2020-12-24T09:21:03Z,42.805,6.029,13.2994,4.60008,2470.11,2020-12-24T11:22:03Z
2020-12-24T09:24:06Z,42.805,6.029,13.2993,4.60021,2470.133,2020-12-24T11:25:06Z
2020-12-24T09:27:09Z,42.805,6.029,13.2979,4.60003,2470.11,2020-12-24T11:28:09Z
2020-12-24T09:30:13Z,42.805,6.029,13.3005,4.60016,2470.11,2020-12-24T11:31:12Z
2020-12-24T09:33:16Z,42.805,6.029,13.3002,4.60014,2470.147,2020-12-24T11:34:15Z
2020-12-24T09:36:19Z,42.805,6.029,13.2983,4.60019,2470.133,2020-12-24T11:37:18Z
2020-12-24T09:39:22Z,42.805,6.029,13.2981,4.60007,2470.133,2020-12-24T11:40:22Z
2020-12-24T09:42:25Z,42.805,6.029,13.2983,4.60012,2470.147,2020-12-24T11:43:25Z
2020-12-24T09:45:28Z,42.805,6.029,13.2984,4.59996,2470.133,2020-12-24T11:46:28Z
2020-12-24T09:48:31Z,42.805,6.029,13.2983,4.60009,2470.133,2020-12-24T11:49:31Z
2020-12-24T09:51:35Z,42.805,6.029,13.2979,4.59997,2470.11,2020-12-24T11:52:34Z
2020-12-24T09:54:38Z,42.805,6.029,13.2979,4.59988,2470.133,2020-12-24T11:55:37Z
2020-12-24T09:57:41Z,42.805,6.029,13.2982,4.59994,2470.156,2020-12-24T11:58:40Z
2020-12-24T10:00:44Z,42.805,6.029,13.2976,4.59993,2470.133,2020-12-24T12:01:44Z
2020-12-24T10:03:47Z,42.805,6.029,13.2980,4.59996,2470.133,2020-12-24T12:04:47Z
2020-12-24T10:06:50Z,42.805,6.029,13.2981,4.60001,2470.11,2020-12-24T12:07:50Z
2020-12-24T10:09:53Z,42.805,6.029,13.2983,4.59996,2470.147,2020-12-24T12:10:53Z
2020-12-24T10:12:56Z,42.805,6.029,13.2979,4.60011,2470.133,2020-12-24T12:13:56Z
2020-12-24T10:16:00Z,42.805,6.029,13.3013,4.60009,2470.133,2020-12-24T12:16:59Z
2020-12-24T10:19:03Z,42.805,6.029,13.3003,4.60013,2470.119,2020-12-24T12:20:02Z
2020-12-24T10:22:06Z,42.805,6.029,13.2982,4.60001,2470.11,2020-12-24T12:23:05Z
2020-12-24T10:25:09Z,42.805,6.029,13.2998,4.60010,2470.147,2020-12-24T12:26:09Z
2020-12-24T10:28:12Z,42.805,6.029,13.2982,4.60005,2470.147,2020-12-24T12:29:12Z
2020-12-24T10:31:15Z,42.805,6.029,13.2987,4.60011,2470.124,2020-12-24T12:32:15Z
2020-12-24T10:34:18Z,42.805,6.029,13.2979,4.59999,2470.133,2020-12-24T12:35:18Z
2020-12-24T10:37:21Z,42.805,6.029,13.3006,4.60013,2470.133,2020-12-24T12:38:21Z
2020-12-24T10:40:25Z,42.805,6.029,13.2985,4.60033,2470.133,2020-12-24T12:41:24Z
2020-12-24T10:43:28Z,42.805,6.029,13.2996,4.60019,2470.156,2020-12-24T12:44:27Z
2020-12-24T10:46:31Z,42.805,6.029,13.2987,4.60014,2470.171,2020-12-24T12:47:30Z
2020-12-24T10:49:34Z,42.805,6.029,13.2986,4.60002,2470.133,2020-12-24T12:50:34Z
2020-12-24T10:52:37Z,42.805,6.029,13.2979,4.60003,2470.133,2020-12-24T12:53:37Z
2020-12-24T10:55:40Z,42.805,6.029,13.2986,4.60011,2470.11,2020-12-24T12:56:40Z
2020-12-24T10:58:43Z,42.805,6.029,13.2993,4.60003,2470.171,2020-12-24T12:59:43Z
2020-12-24T11:01:46Z,42.805,6.029,13.2994,4.60006,2470.156,2020-12-24T13:02:46Z
2020-12-24T11:04:50Z,42.805,6.029,13.2983,4.60002,2470.133,2020-12-24T13:05:49Z
2020-12-24T11:07:53Z,42.805,6.029,13.2993,4.60002,2470.171,2020-12-24T13:08:52Z
2020-12-24T11:10:56Z,42.805,6.029,13.2982,4.60003,2470.171,2020-12-24T13:11:56Z
2020-12-24T11:13:59Z,42.805,6.029,13.2979,4.60002,2470.171,2020-12-24T13:14:59Z
2020-12-24T11:17:02Z,42.805,6.029,13.2980,4.60016,2470.156,2020-12-24T13:18:02Z
2020-12-24T11:20:05Z,42.805,6.029,13.2980,4.59999,2470.147,2020-12-24T13:21:05Z
2020-12-24T11:23:08Z,42.805,6.029,13.2979,4.59992,2470.156,2020-12-24T13:24:08Z
2020-12-24T11:26:11Z,42.805,6.029,13.2982,4.59994,2470.133,2020-12-24T13:27:11Z
2020-12-24T11:29:15Z,42.805,6.029,13.2977,4.59991,2470.156,2020-12-24T13:30:14Z
2020-12-24T11:32:18Z,42.805,6.029,13.2978,4.60001,2470.156,2020-12-24T13:33:17Z
2020-12-24T11:35:21Z,42.805,6.029,13.2989,4.60009,2470.18,2020-12-24T13:36:21Z
2020-12-24T11:38:24Z,42.805,6.029,13.2983,4.59999,2470.133,2020-12-24T13:39:24Z
2020-12-24T11:41:27Z,42.805,6.029,13.2980,4.59999,2470.171,2020-12-24T13:42:27Z
2020-12-24T11:44:30Z,42.805,6.029,13.2980,4.60005,2470.156,2020-12-24T13:45:30Z
2020-12-24T11:47:33Z,42.805,6.029,13.2976,4.60004,2470.217,2020-12-24T13:48:33Z
2020-12-24T11:50:37Z,42.805,6.029,13.2981,4.60009,2470.156,2020-12-24T13:51:36Z
2020-12-24T11:53:40Z,42.805,6.029,13.2996,4.60009,2470.11,2020-12-24T13:54:39Z
2020-12-24T11:56:43Z,42.805,6.029,13.2978,4.60003,2470.194,2020-12-24T13:57:42Z
2020-12-24T11:59:46Z,42.805,6.029,13.2980,4.60003,2470.133,2020-12-24T14:00:46Z
2020-12-24T12:02:49Z,42.805,6.029,13.2983,4.60003,2470.171,2020-12-24T14:03:49Z
2020-12-24T12:05:52Z,42.805,6.029,13.2979,4.59996,2470.133,2020-12-24T14:06:52Z
2020-12-24T12:08:55Z,42.805,6.029,13.2979,4.59993,2470.171,2020-12-24T14:09:55Z
2020-12-24T12:11:58Z,42.805,6.029,13.2979,4.59986,2470.147,2020-12-24T14:12:58Z
2020-12-24T12:15:02Z,42.805,6.029,13.2979,4.59994,2470.171,2020-12-24T14:16:01Z
2020-12-24T12:18:05Z,42.805,6.029,13.2984,4.60011,2470.171,2020-12-24T14:19:04Z
2020-12-24T12:21:08Z,42.805,6.029,13.2982,4.59990,2470.194,2020-12-24T14:22:07Z
2020-12-24T12:24:11Z,42.805,6.029,13.2983,4.60004,2470.194,2020-12-24T14:25:11Z
2020-12-24T12:27:14Z,42.805,6.029,13.2987,4.60006,2470.194,2020-12-24T14:28:14Z
2020-12-24T12:30:17Z,42.805,6.029,13.2980,4.59991,2470.18,2020-12-24T14:31:17Z
2020-12-24T12:33:20Z,42.805,6.029,13.2980,4.59992,2470.171,2020-12-24T14:34:20Z
2020-12-24T12:36:23Z,42.805,6.029,13.2979,4.60011,2470.203,2020-12-24T14:37:23Z
2020-12-24T12:39:27Z,42.805,6.029,13.2980,4.59997,2470.203,2020-12-24T14:40:26Z
2020-12-24T12:42:30Z,42.805,6.029,13.2979,4.59998,2470.156,2020-12-24T14:43:29Z
2020-12-24T12:45:33Z,42.805,6.029,13.2982,4.60003,2470.18,2020-12-24T14:46:32Z
2020-12-24T12:48:36Z,42.805,6.029,13.2979,4.59995,2470.156,2020-12-24T14:49:36Z
2020-12-24T12:51:39Z,42.805,6.029,13.3004,4.60004,2470.203,2020-12-24T14:52:39Z
2020-12-24T12:54:42Z,42.805,6.029,13.2990,4.59999,2470.217,2020-12-24T14:55:42Z
2020-12-24T12:57:45Z,42.805,6.029,13.2977,4.59996,2470.194,2020-12-24T14:58:45Z
2020-12-24T13:00:48Z,42.805,6.029,13.2979,4.59988,2470.18,2020-12-24T15:01:48Z
2020-12-24T13:03:52Z,42.805,6.029,13.2983,4.59992,2470.18,2020-12-24T15:04:51Z
2020-12-24T13:06:55Z,42.805,6.029,13.2978,4.59989,2470.217,2020-12-24T15:07:54Z
2020-12-24T13:09:58Z,42.805,6.029,13.2979,4.59985,2470.156,2020-12-24T15:10:57Z
2020-12-24T13:13:01Z,42.805,6.029,13.2982,4.59988,2470.18,2020-12-24T15:14:01Z
2020-12-24T13:16:04Z,42.805,6.029,13.2982,4.59994,2470.194,2020-12-24T15:17:04Z
2020-12-24T13:19:07Z,42.805,6.029,13.2977,4.59987,2470.18,2020-12-24T15:20:07Z
2020-12-24T13:22:10Z,42.805,6.029,13.2979,4.59989,2470.194,2020-12-24T15:23:10Z
2020-12-24T13:25:13Z,42.805,6.029,13.2979,4.59986,2470.18,2020-12-24T15:26:13Z
2020-12-24T13:28:17Z,42.805,6.029,13.2979,4.59986,2470.203,2020-12-24T15:29:16Z
2020-12-24T13:31:20Z,42.805,6.029,13.2980,4.59989,2470.194,2020-12-24T15:32:19Z
2020-12-24T13:34:23Z,42.805,6.029,13.2977,4.59990,2470.18,2020-12-24T15:35:23Z
2020-12-24T13:37:26Z,42.805,6.029,13.2979,4.59986,2470.171,2020-12-24T15:38:26Z
2020-12-24T13:40:29Z,42.805,6.029,13.2982,4.59987,2470.18,2020-12-24T15:41:29Z
2020-12-24T13:43:32Z,42.805,6.029,13.2983,4.59994,2470.18,2020-12-24T15:44:32Z
2020-12-24T13:46:35Z,42.805,6.029,13.2975,4.59989,2470.203,2020-12-24T15:47:35Z
2020-12-24T13:49:39Z,42.805,6.029,13.2979,4.59990,2470.203,2020-12-24T15:50:38Z
2020-12-24T13:52:42Z,42.805,6.029,13.2981,4.59989,2470.18,2020-12-24T15:53:41Z
2020-12-24T13:55:45Z,42.805,6.029,13.2980,4.59991,2470.18,2020-12-24T15:56:44Z
2020-12-24T13:58:48Z,42.805,6.029,13.2983,4.59996,2470.194,2020-12-24T15:59:48Z
2020-12-24T14:01:51Z,42.805,6.029,13.2979,4.59988,2470.18,2020-12-24T16:02:51Z
2020-12-24T14:04:54Z,42.805,6.029,13.2979,4.59987,2470.194,2020-12-24T16:05:54Z
2020-12-24T14:07:57Z,42.805,6.029,13.2981,4.59986,2470.194,2020-12-24T16:08:57Z
2020-12-24T14:11:00Z,42.805,6.029,13.2979,4.59987,2470.203,2020-12-24T16:12:00Z
2020-12-24T14:14:04Z,42.805,6.029,13.2976,4.59989,2470.217,2020-12-24T16:15:03Z
2020-12-24T14:17:07Z,42.805,6.029,13.2983,4.59986,2470.227,2020-12-24T16:18:06Z
2020-12-24T14:20:10Z,42.805,6.029,13.2982,4.59986,2470.217,2020-12-24T16:21:09Z
2020-12-24T14:23:13Z,42.805,6.029,13.2976,4.59986,2470.227,2020-12-24T16:24:13Z
2020-12-24T14:26:16Z,42.805,6.029,13.2979,4.59986,2470.227,2020-12-24T16:27:16Z
2020-12-24T14:29:19Z,42.805,6.029,13.2983,4.59991,2470.194,2020-12-24T16:30:19Z
2020-12-24T14:32:22Z,42.805,6.029,13.2981,4.59994,2470.203,2020-12-24T16:33:22Z
2020-12-24T14:35:25Z,42.805,6.029,13.2976,4.59988,2470.203,2020-12-24T16:36:25Z
2020-12-24T14:38:29Z,42.805,6.029,13.2981,4.59985,2470.18,2020-12-24T16:39:28Z
2020-12-24T14:41:32Z,42.805,6.029,13.2977,4.59988,2470.227,2020-12-24T16:42:31Z
2020-12-24T14:44:35Z,42.805,6.029,13.2982,4.59993,2470.166,2020-12-24T16:45:34Z
2020-12-24T14:47:38Z,42.805,6.029,13.2978,4.59986,2470.203,2020-12-24T16:48:38Z
2020-12-24T14:50:41Z,42.805,6.029,13.2982,4.59986,2470.227,2020-12-24T16:51:41Z
2020-12-24T14:53:44Z,42.805,6.029,13.2983,4.59995,2470.203,2020-12-24T16:54:44Z
2020-12-24T14:56:47Z,42.805,6.029,13.2982,4.59996,2470.227,2020-12-24T16:57:47Z
2020-12-24T14:59:50Z,42.805,6.029,13.2979,4.59994,2470.203,2020-12-24T17:00:50Z